Flag for Canada Weather past 2 weeks in Strathcona County, Alberta, Canada

Now
72 °F

Scattered clouds.


Feels Like: 76 °F
Forecast: 58 / 78 °F
Wind: 8 mph from East

Location: Edmonton Municipal

Current Time: Aug 1, 2014 at 6:48:06 PM

Latest Report: Aug 1, 2014 at 6:00 PM


Visibility: 9 mi

Pressure: 30.20 "Hg

Humidity: 61%

Dew point: 57 °F

Location of Strathcona CountyLocation

Historic Weather in Strathcona County — Graph

°F

Strathcona County temperature yesterday

Maximum temperature yesterday: 81 °F (at 6:00 PM)
Minimum temperature yesterday: 64 °F (at 5:00 AM)
Average temperature yesterday: 73 °F

Past Weeks' High & Low Weather Summary

 TemperatureHumidityPressure
High88 °F (Jul 30, 4:00 PM)94% (Jul 25, 2:00 AM)30.25 "Hg (Jul 25, 2:00 AM)
Low50 °F (Jul 21, 5:00 AM)28% (Jul 24, 5:00 PM)29.48 "Hg (Jul 25, 7:54 AM)
Average66 °F69%29.92 "Hg
* Reported Jul 17 5:00 PM — Aug 1 5:00 PM, Strathcona County, Weather by CustomWeather, © 2014

Note: Actual official high and low records may vary slightly from our data, if they occured in-between our weather recording intervals... More about our weather records

Advertising

Strathcona County weather history for previous 24 hours

 ConditionsComfort  
Time TempWeatherWind HumidityBarometerVisibility
5:00 PM
Aug 1
72 °FScattered clouds.7 mph57%30.22 "Hg9 mi
4:00 PM72 °FPassing clouds.9 mph65%30.22 "Hg8 mi
3:00 PM72 °FScattered clouds.8 mph65%30.23 "Hg6 mi
2:00 PM68 °FPassing clouds.9 mph73%30.24 "Hg3 mi
1:00 PM68 °FScattered clouds.13 mph73%30.24 "Hg5 mi
12:00 PM68 °FPartly sunny.7 mph73%30.24 "Hg9 mi
11:00 AM66 °FOvercast.7 mph73%30.25 "Hg5 mi
10:01 AM64 °FScattered clouds.9 mph78%30.24 "Hg6 mi
9:00 AM64 °FOvercast.10 mph78%30.23 "Hg7 mi
8:00 AM63 °FSunny.9 mph83%30.22 "Hg9 mi
7:00 AM59 °FPassing clouds.6 mph88%30.20 "Hg9 mi
6:00 AM57 °FPassing clouds.2 mph88%30.19 "Hg9 mi
5:00 AM57 °FClear.6 mph88%30.19 "Hg9 mi
4:00 AM59 °FClear.2 mph77%30.16 "Hg9 mi
3:00 AM59 °FClear.6 mph77%30.14 "Hg9 mi
2:00 AM63 °FClear.5 mph73%30.14 "Hg9 mi
1:00 AM64 °FClear.8 mph68%30.12 "Hg9 mi
12:00 AM66 °FClear.9 mph64%30.13 "Hg9 mi
11:00 PM
Jul 31
66 °FPassing clouds.13 mph64%30.14 "Hg9 mi
10:00 PM73 °FPassing clouds.10 mph61%30.11 "Hg9 mi
9:00 PM73 °FSunny.5 mph65%30.09 "Hg9 mi
8:00 PM75 °FSunny.5 mph57%30.08 "Hg9 mi
7:00 PM77 °FSunny.10 mph44%30.06 "Hg9 mi
6:00 PM81 °FSunny.12 mph42%30.06 "Hg9 mi
Weather by CustomWeather, © 2014

See weather overviewHow to use our weather pages